Regional Weather Roundup
Issued by NWS

Home | Current Version | Previous Version | Graphics & Text | Print | Product List | Glossary On
Versions: 1 2 3 4 5 6 7 8 9 10 11 12 13 14 15 16 17 18 19 20 21 22 23 24 25 26 27 28
000
ASUS45 KBOI 252210
RWRID
WEATHER ROUNDUP FOR IDAHO
NATIONAL WEATHER SERVICE BOISE ID
400 PM MDT SAT OCT 25 2014

NOTE: "FAIR" INDICATES FEW OR NO CLOUDS BELOW 12000 FEET
WITH NO SIGNIFICANT WEATHER AND/OR OBSTRUCTIONS TO VISIBILITY

IDZ012-014-252300-
SOUTHWEST IDAHO


CITY           SKY/WX    TMP DP  RH WIND       PRES   REMARKS
BOISE          MOSUNNY   65  48  54 NW8G18    29.76R
CALDWELL       MOSUNNY   59  45  58 CALM      29.77F
MOUNTAIN HOME  PTSUNNY   77  34  20 S9        29.76F
$$

IDZ016-017-252300-
SOUTHCENTRAL IDAHO


CITY           SKY/WX    TMP DP  RH WIND       PRES   REMARKS
BURLEY         CLOUDY    71  34  25 S13       29.86F
JEROME         CLOUDY    72  32  23 S7        29.84F
TWIN FALLS     CLOUDY    77  26  15 S14G24    29.83F
$$

IDZ019>023-252300-
SOUTHEAST IDAHO


CITY           SKY/WX    TMP DP  RH WIND       PRES   REMARKS
IDAHO FALLS    MOSUNNY   72  34  24 SW23G29   29.90F
POCATELLO      SUNNY     73  31  21 S21G30    29.90F
REXBURG        MOSUNNY   71  30  21 SW15G26   29.90F
$$

IDZ006-010-011-018-031-032-252300-
CENTRAL IDAHO MOUNTAINS


CITY           SKY/WX    TMP DP  RH WIND       PRES   REMARKS
MCCALL         CLOUDY    61  37  41 S17G24    29.79F
HAILEY         CLOUDY    64  36  34 CALM      29.93F
STANLEY          N/A     60  28  29 S10       29.92F
SALMON         PTSUNNY   48  39  71 N3        29.81F
CHALLIS        CLOUDY    66  27  23 S16G22    29.82F
$$

IDZ002-004-006-007-026-252300-
NORTHERN IDAHO


CITY           SKY/WX    TMP DP  RH WIND       PRES   REMARKS
LEWISTON       MOSUNNY   65  50  58 VRB5      29.55F
LOWELL           N/A     58  49  72 N5        29.69F
COEUR D`ALENE  PTSUNNY  N/A N/A N/A NE14      29.56F
MULLAN PASS    CLOUDY    43  39  86 VRB7      29.72F
$$



USA.gov is the U.S. government's official web portal to all federal, state and local government web resources and services.